| time (UTC) | temp F | wind direction | speed knots | gust knots | rain 1hr in | rain 24hr in | rain mn in | humidity % | barometer mb |
| 20260509130030 | 73 | 30 | 2.6 | 4.3 | 0.00 | 0.00 | 0.00 | 83 | 1009.5 |
| 20260509124538 | 73 | 37 | 1.7 | 6.1 | 0.00 | 0.00 | 0.00 | 83 | 1009.9 |
| 20260509123027 | 73 | 26 | 3.5 | 7.0 | 0.00 | 0.00 | 0.00 | 83 | 1009.7 |
| 20260509121538 | 73 | 36 | 4.3 | 8.7 | 0.00 | 0.00 | 0.00 | 83 | 1009.8 |
| 20260509120024 | 73 | 5 | 1.7 | 3.5 | 0.00 | 0.00 | 0.00 | 83 | 1009.6 |
| 20260509114546 | 73 | 26 | 0.0 | 2.6 | 0.00 | 0.00 | 0.00 | 83 | 1009.0 |
| 20260509113023 | 73 | 26 | 0.0 | 0.0 | 0.00 | 0.00 | 0.00 | 83 | 1008.7 |
| 20260509111523 | 73 | 26 | 1.7 | 4.3 | 0.00 | 0.00 | 0.00 | 83 | 1008.7 |
| 20260509110022 | 73 | 16 | 1.7 | 5.2 | 0.00 | 0.00 | 0.00 | 83 | 1008.5 |
| 20260509104522 | 73 | 33 | 1.7 | 3.5 | 0.00 | 0.00 | 0.00 | 83 | 1008.5 |
| 20260509103021 | 73 | 32 | 0.9 | 4.3 | 0.00 | 0.00 | 0.00 | 83 | 1008.7 |
| 20260509101524 | 73 | 39 | 1.7 | 3.5 | 0.00 | 0.00 | 0.00 | 83 | 1009.0 |
| 20260509100020 | 73 | 37 | 0.0 | 3.5 | 0.00 | 0.00 | 0.00 | 83 | 1008.9 |
| 20260509094524 | 73 | 34 | 0.9 | 4.3 | 0.00 | 0.00 | 0.00 | 83 | 1008.2 |
| 20260509093020 | 73 | 32 | 1.7 | 4.3 | 0.00 | 0.00 | 0.00 | 83 | 1007.8 |
| 20260509091518 | 73 | 25 | 2.6 | 5.2 | 0.00 | 0.00 | 0.00 | 83 | 1007.3 |
| 20260509090041 | 73 | 26 | 1.7 | 2.6 | 0.00 | 0.00 | 0.00 | 83 | 1007.7 |
| 20260509084522 | 73 | 30 | 0.9 | 3.5 | 0.00 | 0.00 | 0.00 | 83 | 1007.5 |
| 20260509083038 | 73 | 121 | 0.0 | 2.6 | 0.00 | 0.00 | 0.00 | 83 | 1007.6 |
| 20260509081523 | 73 | 118 | 1.7 | 4.3 | 0.00 | 0.00 | 0.00 | 83 | 1007.3 |
| 20260509080012 | 73 | 179 | 1.7 | 5.2 | 0.00 | 0.00 | 0.00 | 82 | 1008.5 |
| 20260509074524 | 73 | 154 | 0.9 | 2.6 | 0.00 | 0.00 | 0.00 | 82 | 1008.4 |
| 20260509073008 | 73 | 154 | 0.0 | 1.7 | 0.00 | 0.00 | 0.00 | 82 | 1008.1 |
| 20260509071507 | 73 | 154 | 0.9 | 2.6 | 0.00 | 0.00 | 0.00 | 82 | 1008.2 |
| 20260509070004 | 74 | 154 | 1.7 | 3.5 | 0.00 | 0.00 | 0.00 | 82 | 1008.6 |
| 20260509064503 | 74 | 122 | 0.0 | 2.6 | 0.00 | 0.00 | 0.00 | 82 | 1008.6 |
| 20260509063001 | 74 | 160 | 1.7 | 6.1 | 0.00 | 0.00 | 0.00 | 82 | 1008.7 |
| 20260509061602 | 74 | 76 | 0.9 | 2.6 | 0.00 | 0.00 | 0.00 | 82 | 1008.7 |
| 20260509061501 | 74 | 76 | 0.9 | 2.6 | 0.00 | 0.00 | 0.00 | 82 | 1008.8 |
| 20260509060059 | 74 | 74 | 0.0 | 1.7 | 0.00 | 0.00 | 0.00 | 82 | 1008.9 |
| 20260509054600 | 74 | 74 | 0.9 | 2.6 | 0.00 | 0.00 | 0.00 | 82 | 1008.7 |
| 20260509053056 | 74 | 74 | 1.7 | 3.5 | 0.00 | 0.00 | 0.00 | 81 | 1009.0 |
| 20260509051554 | 74 | 69 | 0.0 | 2.6 | 0.00 | 0.00 | 0.00 | 81 | 1009.2 |
| 20260509050059 | 74 | 69 | 0.9 | 3.5 | 0.00 | 0.00 | 0.00 | 81 | 1009.3 |
| 20260509044549 | 74 | 40 | 0.9 | 2.6 | 0.00 | 0.00 | 0.00 | 81 | 1009.1 |
| 20260509043049 | 74 | 35 | 0.0 | 0.9 | 0.00 | 0.00 | 0.00 | 81 | 1009.0 |
| 20260509041551 | 74 | 34 | 0.0 | 2.6 | 0.00 | 0.00 | 0.00 | 81 | 1008.8 |
| 20260509040048 | 74 | 28 | 0.0 | 1.7 | 0.00 | 0.00 | 0.00 | 80 | 1008.6 |
| 20260509034546 | 74 | 28 | 0.9 | 2.6 | 0.00 | 0.00 | 0.00 | 80 | 1008.3 |
| 20260509033102 | 74 | 27 | 1.7 | 3.5 | 0.00 | 0.00 | 0.00 | 80 | 1008.3 |
| 20260509031545 | 74 | 24 | 0.0 | 2.6 | 0.00 | 0.00 | 0.00 | 80 | 1008.2 |
| 20260509030047 | 74 | 23 | 0.9 | 2.6 | 0.00 | 0.00 | 0.00 | 79 | 1008.2 |
| 20260509024549 | 74 | 23 | 0.9 | 2.6 | 0.00 | 0.00 | 0.00 | 79 | 1008.1 |
| 20260509023043 | 74 | 72 | 0.9 | 2.6 | 0.00 | 0.00 | 0.00 | 78 | 1007.7 |
| 20260509021543 | 75 | 74 | 0.0 | 1.7 | 0.00 | 0.00 | 0.00 | 78 | 1007.5 |
| 20260509020046 | 75 | 93 | 0.0 | 2.6 | 0.00 | 0.00 | 0.00 | 78 | 1007.4 |
| 20260509014541 | 75 | 41 | 0.0 | 0.9 | 0.00 | 0.00 | 0.00 | 77 | 1007.5 |
| 20260509013047 | 75 | 41 | 0.0 | 2.6 | 0.00 | 0.00 | 0.00 | 77 | 1007.2 |
| 20260509011541 | 76 | 41 | 0.0 | 2.6 | 0.00 | 0.00 | 0.00 | 77 | 1007.1 |
| 20260509010040 | 76 | 40 | 0.9 | 2.6 | 0.00 | 0.00 | 0.00 | 76 | 1006.9 |
| 20260509004552 | 76 | 40 | 0.9 | 4.3 | 0.00 | 0.00 | 0.00 | 76 | 1006.8 |
| 20260509003041 | 76 | 59 | 0.9 | 3.5 | 0.00 | 0.00 | 0.00 | 75 | 1006.8 |
| 20260509001537 | 77 | 69 | 0.0 | 3.5 | 0.00 | 0.00 | 0.00 | 75 | 1007.1 |
| 20260509000043 | 77 | 62 | 0.9 | 3.5 | 0.00 | 0.00 | 0.00 | 75 | 1006.9 |
| 20260508234535 | 77 | 68 | 0.9 | 2.6 | 0.00 | 0.00 | 0.00 | 74 | 1006.9 |
| 20260508233036 | 77 | 47 | 0.9 | 4.3 | 0.00 | 0.00 | 0.00 | 75 | 1006.9 |
| 20260508231635 | 77 | 79 | 0.9 | 3.5 | 0.00 | 0.00 | 0.00 | 74 | 1006.9 |
| 20260508230032 | 77 | 48 | 0.9 | 3.5 | 0.00 | 0.00 | 0.00 | 74 | 1007.0 |
| 20260508224554 | 77 | 44 | 1.7 | 4.3 | 0.00 | 0.00 | 0.00 | 74 | 1007.0 |
| 20260508223030 | 76 | 46 | 1.7 | 3.5 | 0.00 | 0.00 | 0.00 | 74 | 1007.1 |
| 20260508221532 | 76 | 32 | 0.9 | 4.3 | 0.00 | 0.00 | 0.00 | 74 | 1007.4 |
| 20260508220031 | 77 | 42 | 1.7 | 5.2 | 0.00 | 0.00 | 0.00 | 74 | 1007.6 |
| 20260508214535 | 76 | 46 | 0.9 | 5.2 | 0.00 | 0.00 | 0.00 | 74 | 1007.7 |
| 20260508213030 | 77 | 60 | 0.9 | 3.5 | 0.00 | 0.00 | 0.00 | 73 | 1007.8 |
| 20260508211524 | 76 | 80 | 0.9 | 2.6 | 0.00 | 0.00 | 0.00 | 72 | 1007.9 |
| 20260508210019 | 77 | 89 | 1.7 | 4.3 | 0.00 | 0.00 | 0.00 | 72 | 1008.2 |
| 20260508204515 | 76 | 53 | 0.9 | 3.5 | 0.00 | 0.00 | 0.00 | 72 | 1008.4 |
| 20260508203014 | 76 | 113 | 0.9 | 4.3 | 0.00 | 0.00 | 0.00 | 72 | 1008.5 |
| 20260508201512 | 76 | 100 | 0.9 | 4.3 | 0.00 | 0.00 | 0.00 | 70 | 1008.5 |
| 20260508200027 | 76 | 88 | 0.9 | 5.2 | 0.00 | 0.00 | 0.00 | 70 | 1008.7 |
| 20260508194512 | 76 | 115 | 1.7 | 6.1 | 0.00 | 0.00 | 0.00 | 70 | 1008.9 |
| 20260508193004 | 75 | 38 | 0.9 | 4.3 | 0.00 | 0.00 | 0.00 | 72 | 1009.0 |
| 20260508191500 | 74 | 112 | 0.9 | 3.5 | 0.00 | 0.00 | 0.00 | 73 | 1009.2 |
| 20260508190057 | 73 | 63 | 0.9 | 3.5 | 0.00 | 0.00 | 0.00 | 73 | 1009.4 |
| 20260508184554 | 72 | 50 | 0.9 | 6.1 | 0.00 | 0.00 | 0.00 | 74 | 1009.5 |
| 20260508183106 | 71 | 32 | 1.7 | 4.3 | 0.00 | 0.00 | 0.00 | 73 | 1010.0 |
| 20260508181604 | 71 | 22 | 1.7 | 3.5 | 0.00 | 0.00 | 0.00 | 73 | 1010.2 |
| 20260508180045 | 71 | 13 | 1.7 | 3.5 | 0.00 | 0.00 | 0.00 | 73 | 1010.4 |
| 20260508174544 | 70 | 348 | 0.0 | 2.6 | 0.00 | 0.00 | 0.00 | 74 | 1010.7 |
| 20260508173041 | 70 | 22 | 1.7 | 6.1 | 0.00 | 0.00 | 0.00 | 73 | 1010.7 |
| 20260508171547 | 69 | 61 | 1.7 | 3.5 | 0.00 | 0.00 | 0.00 | 73 | 1010.8 |
| 20260508170037 | 69 | 40 | 3.5 | 6.1 | 0.00 | 0.00 | 0.00 | 73 | 1010.9 |
| 20260508164536 | 69 | 35 | 1.7 | 4.3 | 0.00 | 0.00 | 0.00 | 74 | 1011.1 |
| 20260508163032 | 68 | 9 | 3.5 | 6.1 | 0.00 | 0.00 | 0.00 | 74 | 1011.1 |
| 20260508161629 | 67 | 38 | 1.7 | 4.3 | 0.00 | 0.00 | 0.00 | 75 | 1011.2 |
| 20260508160033 | 67 | 47 | 3.5 | 0.0 | 6.48 | 0.00 | 0.00 | 75 | 1011.4 |
| 20260508154525 | 66 | 38 | 2.6 | 5.2 | 0.00 | 0.00 | 0.00 | 75 | 1011.7 |
| 20260508150026 | 65 | 36 | 3.5 | 7.0 | 0.00 | 0.00 | 0.00 | 75 | 1012.2 |
| 20260508144536 | 65 | 50 | 1.7 | 7.0 | 0.00 | 0.00 | 0.00 | 75 | 1012.5 |
| 20260508143033 | 65 | 339 | 3.5 | 7.0 | 0.00 | 0.00 | 0.00 | 75 | 1012.2 |
| 20260508141524 | 65 | 44 | 3.5 | 7.8 | 0.00 | 0.00 | 0.00 | 75 | 1012.1 |
| 20260508140020 | 64 | 23 | 4.3 | 7.8 | 0.00 | 0.00 | 0.00 | 75 | 1012.1 |
| 20260508134518 | 64 | 48 | 2.6 | 7.0 | 0.00 | 0.00 | 0.00 | 75 | 1011.9 |
| 20260508133019 | 64 | 35 | 2.6 | 7.0 | 0.00 | 0.00 | 0.00 | 75 | 1012.1 |
| 20260508131517 | 63 | 34 | 1.7 | 6.1 | 0.00 | 0.00 | 0.00 | 75 | 1012.1 |